TimeMDT,TemperatureF,Dew PointF,Humidity,Sea Level PressureIn,VisibilityMPH,Wind Direction,Wind SpeedMPH,Gust SpeedMPH,PrecipitationIn,Events,Conditions,WindDirDegrees,DateUTC
12:15 AM,30.2,23.0,75,29.88,-9999.0,ESE,16.1,-,N/A,,Clear,110,2013-04-13 06:15:00
12:55 AM,32.0,23.0,69,29.86,-9999.0,ESE,16.1,-,N/A,,Clear,120,2013-04-13 06:55:00
1:15 AM,32.0,23.0,69,29.84,-9999.0,ESE,18.4,-,N/A,,Clear,120,2013-04-13 07:15:00
1:35 AM,32.0,23.0,69,29.83,-9999.0,ESE,17.3,-,N/A,,Clear,120,2013-04-13 07:35:00
1:55 AM,32.0,23.0,69,29.82,-9999.0,SE,12.7,-,N/A,,Clear,130,2013-04-13 07:55:00
2:35 AM,32.0,24.8,75,29.78,-9999.0,SE,13.8,-,N/A,,Clear,130,2013-04-13 08:35:00
2:55 AM,32.0,24.8,75,29.77,-9999.0,ESE,15.0,20.7,N/A,,Scattered Clouds,120,2013-04-13 08:55:00
3:15 AM,32.0,24.8,75,29.75,-9999.0,SE,17.3,-,N/A,,Clear,130,2013-04-13 09:15:00
3:35 AM,32.0,23.0,69,29.74,-9999.0,SE,18.4,-,N/A,,Clear,130,2013-04-13 09:35:00
3:55 AM,32.0,23.0,69,29.73,-9999.0,SE,11.5,-,N/A,,Clear,140,2013-04-13 09:55:00
4:15 AM,32.0,23.0,69,29.71,-9999.0,SE,6.9,-,N/A,,Clear,140,2013-04-13 10:15:00
4:35 AM,32.0,23.0,69,29.71,-9999.0,SE,6.9,-,N/A,,Clear,140,2013-04-13 10:35:00
4:55 AM,32.0,23.0,69,29.71,-9999.0,South,6.9,-,N/A,,Clear,170,2013-04-13 10:55:00
5:15 AM,32.0,23.0,69,29.70,-9999.0,SSE,9.2,-,N/A,,Clear,160,2013-04-13 11:15:00
5:35 AM,33.8,21.2,60,29.68,-9999.0,SSE,12.7,-,N/A,,Clear,160,2013-04-13 11:35:00
5:55 AM,32.0,21.2,64,29.69,-9999.0,ESE,4.6,18.4,N/A,,Clear,110,2013-04-13 11:55:00
6:15 AM,33.8,21.2,60,29.68,-9999.0,SSW,17.3,26.5,N/A,,Clear,210,2013-04-13 12:15:00
6:35 AM,33.8,21.2,60,29.67,-9999.0,SW,23.0,28.8,N/A,,Clear,220,2013-04-13 12:35:00
6:55 AM,33.8,23.0,65,29.65,-9999.0,SSW,21.9,27.6,N/A,,Clear,210,2013-04-13 12:55:00
7:35 AM,33.8,23.0,65,29.65,-9999.0,South,6.9,-,N/A,,Mostly Cloudy,170,2013-04-13 13:35:00
7:55 AM,33.8,23.0,65,29.65,-9999.0,SSE,11.5,18.4,N/A,,Mostly Cloudy,160,2013-04-13 13:55:00
8:15 AM,33.8,23.0,65,29.65,-9999.0,SSE,10.4,16.1,N/A,,Overcast,160,2013-04-13 14:15:00
8:35 AM,33.8,23.0,65,29.64,-9999.0,SSE,9.2,-,N/A,,Overcast,150,2013-04-13 14:35:00
8:55 AM,32.0,24.8,75,29.63,-9999.0,SSE,10.4,-,N/A,,Overcast,150,2013-04-13 14:55:00
9:15 AM,33.8,24.8,70,29.62,-9999.0,SSE,10.4,-,N/A,,Overcast,150,2013-04-13 15:15:00
9:35 AM,32.0,24.8,75,29.61,-9999.0,SSE,9.2,-,N/A,,Overcast,150,2013-04-13 15:35:00
9:55 AM,32.0,26.6,80,29.60,-9999.0,SE,10.4,-,N/A,,Overcast,140,2013-04-13 15:55:00
10:15 AM,32.0,24.8,75,29.59,-9999.0,SE,12.7,-,N/A,,Overcast,140,2013-04-13 16:15:00
10:35 AM,32.0,26.6,80,29.59,-9999.0,SE,10.4,-,N/A,,Scattered Clouds,130,2013-04-13 16:35:00
10:55 AM,33.8,24.8,70,29.58,-9999.0,SE,12.7,-,N/A,,Clear,130,2013-04-13 16:55:00
11:15 AM,35.6,24.8,65,29.56,-9999.0,SE,16.1,-,N/A,,Clear,130,2013-04-13 17:15:00
11:35 AM,35.6,23.0,60,29.56,-9999.0,SE,17.3,-,N/A,,Clear,130,2013-04-13 17:35:00
11:55 AM,35.6,23.0,60,29.55,10.0,SE,20.7,-,N/A,,Clear,130,2013-04-13 17:55:00
12:15 PM,37.4,23.0,56,29.54,10.0,SE,17.3,-,N/A,,Clear,130,2013-04-13 18:15:00
12:35 PM,37.4,24.8,60,29.53,10.0,ESE,16.1,-,N/A,,Scattered Clouds,120,2013-04-13 18:35:00
12:55 PM,37.4,26.6,65,29.52,10.0,ESE,18.4,-,N/A,,Scattered Clouds,120,2013-04-13 18:55:00
1:15 PM,39.2,28.4,65,29.51,10.0,SE,20.7,25.3,N/A,,Scattered Clouds,140,2013-04-13 19:15:00
1:35 PM,41.0,28.4,61,29.50,10.0,ESE,19.6,25.3,N/A,,Clear,120,2013-04-13 19:35:00
1:55 PM,41.0,26.6,57,29.50,10.0,ESE,17.3,26.5,N/A,,Scattered Clouds,120,2013-04-13 19:55:00
2:15 PM,42.8,28.4,57,29.49,10.0,SSE,16.1,21.9,N/A,,Scattered Clouds,150,2013-04-13 20:15:00
2:35 PM,42.8,26.6,53,29.47,10.0,SSE,21.9,28.8,N/A,,Mostly Cloudy,160,2013-04-13 20:35:00
2:55 PM,42.8,26.6,53,29.47,10.0,SSE,19.6,36.8,N/A,,Mostly Cloudy,150,2013-04-13 20:55:00
3:15 PM,41.0,30.2,65,29.49,7.0,South,19.6,38.0,N/A,Rain,Light Rain,190,2013-04-13 21:15:00
3:35 PM,41.0,28.4,61,29.47,10.0,South,16.1,24.2,N/A,,Overcast,170,2013-04-13 21:35:00
3:55 PM,42.8,28.4,57,29.45,10.0,SSE,18.4,29.9,N/A,Rain,Light Rain,150,2013-04-13 21:55:00
4:15 PM,42.8,28.4,57,29.44,10.0,South,31.1,48.3,N/A,,Overcast,170,2013-04-13 22:15:00
4:35 PM,42.8,30.2,61,29.46,10.0,South,25.3,34.5,N/A,Rain,Light Rain,170,2013-04-13 22:35:00
4:55 PM,42.8,30.2,61,29.47,10.0,South,13.8,27.6,N/A,,Overcast,180,2013-04-13 22:55:00
5:15 PM,39.2,24.8,56,29.47,10.0,WSW,35.7,51.8,N/A,,Overcast,240,2013-04-13 23:15:00
5:35 PM,37.4,23.0,56,29.47,10.0,SW,29.9,49.5,N/A,,Overcast,230,2013-04-13 23:35:00
5:55 PM,39.2,23.0,52,29.47,10.0,SW,27.6,40.3,N/A,,Overcast,220,2013-04-13 23:55:00
6:35 PM,37.4,19.4,48,29.47,10.0,SW,16.1,36.8,N/A,,Scattered Clouds,230,2013-04-14 00:35:00
6:55 PM,32.0,30.2,93,29.50,0.5,NNW,16.1,34.5,N/A,Fog,Fog,340,2013-04-14 00:55:00
7:15 PM,32.0,30.2,93,29.51,0.2,NNW,17.3,26.5,N/A,Snow,Light Snow,340,2013-04-14 01:15:00
7:35 PM,32.0,30.2,93,29.50,0.2,North,21.9,-,N/A,Snow,Light Snow,350,2013-04-14 01:35:00
7:55 PM,30.2,30.2,100,29.50,0.2,North,16.1,-,N/A,Snow,Light Snow,350,2013-04-14 01:55:00
8:15 PM,30.2,30.2,100,29.50,0.2,NNW,17.3,-,N/A,Snow,Light Snow,340,2013-04-14 02:15:00
8:35 PM,30.2,30.2,100,29.50,0.2,NW,19.6,-,N/A,Snow,Light Snow,320,2013-04-14 02:35:00
8:55 PM,30.2,30.2,100,29.51,0.2,NNW,21.9,-,N/A,Snow,Light Snow,340,2013-04-14 02:55:00
9:15 PM,30.2,30.2,100,29.52,0.2,NNW,19.6,-,N/A,Snow,Light Snow,330,2013-04-14 03:15:00
9:35 PM,30.2,30.2,100,29.53,0.2,NNW,23.0,-,N/A,Snow,Light Snow,330,2013-04-14 03:35:00
9:55 PM,28.4,28.4,100,29.53,0.2,NNW,33.4,-,N/A,Snow,Light Snow,330,2013-04-14 03:55:00
10:15 PM,26.6,26.6,100,29.55,-9999.0,NNW,23.0,-,N/A,,Overcast,330,2013-04-14 04:15:00
10:35 PM,28.4,26.6,93,29.55,-9999.0,NW,20.7,-,N/A,,Overcast,320,2013-04-14 04:35:00
10:55 PM,28.4,26.6,93,29.56,-9999.0,NW,18.4,-,N/A,,Overcast,320,2013-04-14 04:55:00
11:15 PM,26.6,24.8,93,29.55,-9999.0,North,-9999.0,-,N/A,,Overcast,0,2013-04-14 05:15:00
11:35 PM,23.0,23.0,100,29.55,-9999.0,North,-9999.0,-,N/A,,Overcast,0,2013-04-14 05:35:00
11:55 PM,23.0,21.2,93,29.57,-9999.0,North,-9999.0,-,N/A,,Overcast,0,2013-04-14 05:55:00